Time,TemperatureF,DewpointF,PressureIn,WindDirection,WindDirectionDegrees,WindSpeedMPH,WindSpeedGustMPH,Humidity,HourlyPrecipIn,Conditions,Clouds,dailyrainin,SoftwareType,DateUTC
2013-04-29 00:05:00,56.1,55.8,29.79,WNW,292,0.0,-999.0,99,-99.99,,,0.00,Acu-Link.com,2013-04-29 04:05:00,
2013-04-29 00:20:00,56.3,56.0,29.79,NW,315,0.0,-999.0,99,-99.99,,,0.00,Acu-Link.com,2013-04-29 04:20:00,
2013-04-29 00:35:00,56.3,56.0,29.79,ESE,112,0.0,-999.0,99,-99.99,,,0.00,Acu-Link.com,2013-04-29 04:35:00,
2013-04-29 00:50:00,56.3,56.0,29.80,WNW,292,0.0,-999.0,99,-99.99,,,0.00,Acu-Link.com,2013-04-29 04:50:00,
2013-04-29 01:05:00,56.3,56.0,29.80,WSW,247,0.0,-999.0,99,-99.99,,,0.00,Acu-Link.com,2013-04-29 05:05:00,
2013-04-29 01:20:00,56.3,56.0,29.80,WNW,292,0.0,-999.0,99,-99.99,,,0.00,Acu-Link.com,2013-04-29 05:20:00,
2013-04-29 01:35:00,56.3,56.0,29.80,WNW,292,0.0,-999.0,99,-99.99,,,0.00,Acu-Link.com,2013-04-29 05:35:00,
2013-04-29 01:50:00,56.5,56.2,29.80,West,270,0.0,-999.0,99,-99.99,,,0.00,Acu-Link.com,2013-04-29 05:50:00,
2013-04-29 02:05:00,56.7,56.4,29.80,WNW,292,0.0,-999.0,99,-99.99,,,0.00,Acu-Link.com,2013-04-29 06:05:00,
2013-04-29 02:21:00,56.7,56.4,29.80,West,270,0.0,-999.0,99,-99.99,,,0.00,Acu-Link.com,2013-04-29 06:21:00,
2013-04-29 02:36:00,56.8,56.5,29.80,SW,225,0.0,-999.0,99,-99.99,,,0.00,Acu-Link.com,2013-04-29 06:36:00,
2013-04-29 02:51:00,56.8,56.5,29.79,SSW,202,0.0,-999.0,99,-99.99,,,0.00,Acu-Link.com,2013-04-29 06:51:00,
2013-04-29 03:06:00,56.7,56.1,29.79,WNW,292,1.1,-999.0,98,-99.99,,,0.00,Acu-Link.com,2013-04-29 07:06:00,
2013-04-29 03:21:00,56.3,55.7,29.79,NW,315,0.0,-999.0,98,-99.99,,,0.00,Acu-Link.com,2013-04-29 07:21:00,
2013-04-29 03:36:00,56.3,55.7,29.79,West,270,0.0,-999.0,98,-99.99,,,0.00,Acu-Link.com,2013-04-29 07:36:00,
2013-04-29 03:51:00,56.3,55.7,29.79,West,270,0.0,-999.0,98,-99.99,,,0.00,Acu-Link.com,2013-04-29 07:51:00,
2013-04-29 04:07:00,56.3,55.7,29.80,SW,225,1.7,-999.0,98,-99.99,,,0.00,Acu-Link.com,2013-04-29 08:07:00,
2013-04-29 04:22:00,56.5,55.9,29.79,SSW,202,2.7,-999.0,98,-99.99,,,0.00,Acu-Link.com,2013-04-29 08:22:00,
2013-04-29 04:37:00,56.5,55.9,29.79,West,270,0.0,-999.0,98,-99.99,,,0.00,Acu-Link.com,2013-04-29 08:37:00,
2013-04-29 04:52:00,56.3,55.7,29.80,WNW,292,2.2,-999.0,98,-99.99,,,0.00,Acu-Link.com,2013-04-29 08:52:00,
2013-04-29 05:08:00,56.3,55.7,29.79,WSW,247,1.7,-999.0,98,-99.99,,,0.00,Acu-Link.com,2013-04-29 09:08:00,
2013-04-29 05:23:00,56.3,55.7,29.80,SW,225,1.1,-999.0,98,-99.99,,,0.00,Acu-Link.com,2013-04-29 09:23:00,
2013-04-29 05:38:00,56.3,55.7,29.80,ESE,112,0.0,-999.0,98,-99.99,,,0.00,Acu-Link.com,2013-04-29 09:38:00,
2013-04-29 05:53:00,56.3,55.7,29.80,West,270,0.0,-999.0,98,-99.99,,,0.00,Acu-Link.com,2013-04-29 09:53:00,
2013-04-29 06:08:00,56.3,55.7,29.80,West,270,1.7,-999.0,98,-99.99,,,0.00,Acu-Link.com,2013-04-29 10:08:00,
2013-04-29 06:23:00,55.9,55.3,29.80,West,270,0.0,-999.0,98,-99.99,,,0.00,Acu-Link.com,2013-04-29 10:23:00,
2013-04-29 06:38:00,56.1,55.5,29.81,SSW,202,2.7,-999.0,98,-99.99,,,0.00,Acu-Link.com,2013-04-29 10:38:00,
2013-04-29 06:53:00,56.3,55.7,29.82,West,270,0.0,-999.0,98,-99.99,,,0.00,Acu-Link.com,2013-04-29 10:53:00,
2013-04-29 07:08:00,56.5,55.7,29.81,SW,225,2.7,-999.0,97,-99.99,,,0.00,Acu-Link.com,2013-04-29 11:08:00,
2013-04-29 07:24:00,56.8,55.7,29.82,WSW,247,2.7,-999.0,96,-99.99,,,0.00,Acu-Link.com,2013-04-29 11:24:00,
2013-04-29 07:39:00,57.0,55.9,29.83,SSE,157,0.0,-999.0,96,-99.99,,,0.00,Acu-Link.com,2013-04-29 11:39:00,
2013-04-29 07:54:00,57.2,56.1,29.83,SE,135,0.0,-999.0,96,-99.99,,,0.00,Acu-Link.com,2013-04-29 11:54:00,
2013-04-29 08:09:00,57.4,56.3,29.83,SW,225,0.0,-999.0,96,-99.99,,,0.00,Acu-Link.com,2013-04-29 12:09:00,
2013-04-29 08:24:00,58.1,56.7,29.83,SW,225,0.0,-999.0,95,-99.99,,,0.00,Acu-Link.com,2013-04-29 12:24:00,
2013-04-29 08:39:00,59.0,57.3,29.84,South,180,0.0,-999.0,94,-99.99,,,0.00,Acu-Link.com,2013-04-29 12:39:00,
2013-04-29 08:54:00,58.8,56.2,29.84,South,180,2.7,-999.0,91,-99.99,,,0.00,Acu-Link.com,2013-04-29 12:54:00,
2013-04-29 09:09:00,59.2,56.6,29.84,West,270,3.7,-999.0,91,-99.99,,,0.00,Acu-Link.com,2013-04-29 13:09:00,
2013-04-29 09:24:00,59.5,56.9,29.84,SSW,202,2.2,-999.0,91,-99.99,,,0.00,Acu-Link.com,2013-04-29 13:24:00,
2013-04-29 09:40:00,59.7,56.5,29.84,WSW,247,2.7,-999.0,89,-99.99,,,0.00,Acu-Link.com,2013-04-29 13:40:00,
2013-04-29 09:55:00,61.2,57.9,29.84,SW,225,1.7,-999.0,89,-99.99,,,0.00,Acu-Link.com,2013-04-29 13:55:00,
2013-04-29 10:10:00,61.7,58.1,29.85,South,180,1.1,-999.0,88,-99.99,,,0.00,Acu-Link.com,2013-04-29 14:10:00,
2013-04-29 10:25:00,63.1,58.2,29.84,WSW,247,2.2,-999.0,84,-99.99,,,0.00,Acu-Link.com,2013-04-29 14:25:00,
2013-04-29 10:40:00,62.2,57.3,29.85,South,180,3.7,-999.0,84,-99.99,,,0.00,Acu-Link.com,2013-04-29 14:40:00,
2013-04-29 10:55:00,62.6,57.4,29.85,SW,225,3.2,-999.0,83,-99.99,,,0.00,Acu-Link.com,2013-04-29 14:55:00,
2013-04-29 11:10:00,64.8,59.2,29.84,South,180,2.2,-999.0,82,-99.99,,,0.00,Acu-Link.com,2013-04-29 15:10:00,
2013-04-29 11:25:00,66.4,58.2,29.83,SSE,157,3.2,-999.0,75,-99.99,,,0.00,Acu-Link.com,2013-04-29 15:25:00,
2013-04-29 11:40:00,69.6,59.8,29.83,SSE,157,1.7,-999.0,71,-99.99,,,0.00,Acu-Link.com,2013-04-29 15:40:00,
2013-04-29 11:56:00,70.3,60.0,29.83,South,180,2.2,-999.0,70,-99.99,,,0.00,Acu-Link.com,2013-04-29 15:56:00,
2013-04-29 12:11:00,69.1,59.3,29.83,SSW,202,2.7,-999.0,71,-99.99,,,0.00,Acu-Link.com,2013-04-29 16:11:00,
2013-04-29 12:26:00,69.6,58.1,29.83,West,270,2.7,-999.0,67,-99.99,,,0.00,Acu-Link.com,2013-04-29 16:26:00,
2013-04-29 12:41:00,71.6,59.6,29.82,SSW,202,3.2,-999.0,66,-99.99,,,0.00,Acu-Link.com,2013-04-29 16:41:00,
2013-04-29 12:56:00,76.1,61.2,29.80,SSE,157,2.2,-999.0,60,-99.99,,,0.00,Acu-Link.com,2013-04-29 16:56:00,
2013-04-29 13:11:00,77.0,61.1,29.78,SE,135,4.7,-999.0,58,-99.99,,,0.00,Acu-Link.com,2013-04-29 17:11:00,
2013-04-29 13:26:00,75.9,59.1,29.78,SW,225,2.7,-999.0,56,-99.99,,,0.00,Acu-Link.com,2013-04-29 17:26:00,
2013-04-29 13:45:00,76.8,60.4,29.78,SSW,202,2.2,-999.0,57,-99.99,,,0.00,Acu-Link.com,2013-04-29 17:45:00,
2013-04-29 14:00:00,80.4,60.6,29.77,NE,45,0.0,-999.0,51,-99.99,,,0.00,Acu-Link.com,2013-04-29 18:00:00,
2013-04-29 14:15:00,77.9,58.8,29.77,SSE,157,0.0,-999.0,52,-99.99,,,0.00,Acu-Link.com,2013-04-29 18:15:00,
2013-04-29 14:33:00,78.8,59.7,29.78,ENE,67,2.2,-999.0,52,-99.99,,,0.00,Acu-Link.com,2013-04-29 18:33:00,
2013-04-29 14:49:00,79.3,59.0,29.76,East,90,4.2,-999.0,50,-99.99,,,0.00,Acu-Link.com,2013-04-29 18:49:00,
2013-04-29 15:05:00,82.2,58.7,29.75,NNW,337,3.7,-999.0,45,-99.99,,,0.00,Acu-Link.com,2013-04-29 19:05:00,
2013-04-29 15:20:00,78.8,57.4,29.75,NE,45,2.7,-999.0,48,-99.99,,,0.00,Acu-Link.com,2013-04-29 19:20:00,
2013-04-29 15:35:00,77.0,56.4,29.75,NNW,337,1.7,-999.0,49,-99.99,,,0.00,Acu-Link.com,2013-04-29 19:35:00,
2013-04-29 15:51:00,79.2,57.8,29.73,NE,45,2.2,-999.0,48,-99.99,,,0.00,Acu-Link.com,2013-04-29 19:51:00,
2013-04-29 16:06:00,76.6,58.2,29.73,ESE,112,0.0,-999.0,53,-99.99,,,0.00,Acu-Link.com,2013-04-29 20:06:00,
2013-04-29 16:21:00,77.0,58.5,29.74,NNE,22,1.1,-999.0,53,-99.99,,,0.00,Acu-Link.com,2013-04-29 20:21:00,
2013-04-29 16:36:00,77.4,58.4,29.73,NW,315,2.2,-999.0,52,-99.99,,,0.00,Acu-Link.com,2013-04-29 20:36:00,
2013-04-29 16:52:00,73.9,57.7,29.73,East,90,2.7,-999.0,57,-99.99,,,0.00,Acu-Link.com,2013-04-29 20:52:00,
2013-04-29 17:07:00,73.8,58.6,29.72,NW,315,2.2,-999.0,59,-99.99,,,0.00,Acu-Link.com,2013-04-29 21:07:00,
2013-04-29 17:23:00,72.9,58.2,29.72,NNW,337,1.7,-999.0,60,-99.99,,,0.00,Acu-Link.com,2013-04-29 21:23:00,
2013-04-29 17:38:00,72.9,60.0,29.72,WNW,292,0.0,-999.0,64,-99.99,,,0.00,Acu-Link.com,2013-04-29 21:38:00,
2013-04-29 17:54:00,72.9,57.7,29.72,NE,45,2.7,-999.0,59,-99.99,,,0.00,Acu-Link.com,2013-04-29 21:54:00,
2013-04-29 18:10:00,72.0,58.3,29.72,ESE,112,2.2,-999.0,62,-99.99,,,0.00,Acu-Link.com,2013-04-29 22:10:00,
2013-04-29 18:33:00,71.4,57.2,29.72,East,90,2.2,-999.0,61,-99.99,,,0.00,Acu-Link.com,2013-04-29 22:33:00,
2013-04-29 18:49:00,72.0,57.8,29.72,NNE,22,0.0,-999.0,61,-99.99,,,0.00,Acu-Link.com,2013-04-29 22:49:00,
2013-04-29 19:04:00,71.4,56.8,29.72,NW,315,0.0,-999.0,60,-99.99,,,0.00,Acu-Link.com,2013-04-29 23:04:00,
2013-04-29 19:20:00,70.3,58.0,29.72,West,270,0.0,-999.0,65,-99.99,,,0.00,Acu-Link.com,2013-04-29 23:20:00,
2013-04-29 19:35:00,68.0,57.4,29.72,West,270,1.7,-999.0,69,-99.99,,,0.00,Acu-Link.com,2013-04-29 23:35:00,
2013-04-29 19:50:00,66.2,56.9,29.73,WNW,292,1.7,-999.0,72,-99.99,,,0.00,Acu-Link.com,2013-04-29 23:50:00,
2013-04-29 20:05:00,63.5,56.9,29.73,WNW,292,1.7,-999.0,79,-99.99,,,0.00,Acu-Link.com,2013-04-30 00:05:00,
2013-04-29 20:21:00,62.2,57.0,29.75,WNW,292,1.7,-999.0,83,-99.99,,,0.00,Acu-Link.com,2013-04-30 00:21:00,
2013-04-29 20:36:00,60.6,56.4,29.75,WNW,292,0.0,-999.0,86,-99.99,,,0.00,Acu-Link.com,2013-04-30 00:36:00,
2013-04-29 20:51:00,59.4,56.2,29.76,WNW,292,1.7,-999.0,89,-99.99,,,0.00,Acu-Link.com,2013-04-30 00:51:00,
2013-04-29 21:06:00,58.6,56.0,29.77,West,270,1.7,-999.0,91,-99.99,,,0.00,Acu-Link.com,2013-04-30 01:06:00,
2013-04-29 21:21:00,57.9,55.3,29.77,NW,315,0.0,-999.0,91,-99.99,,,0.00,Acu-Link.com,2013-04-30 01:21:00,
2013-04-29 21:36:00,57.0,54.7,29.78,NE,45,3.7,-999.0,92,-99.99,,,0.00,Acu-Link.com,2013-04-30 01:36:00,
2013-04-29 21:51:00,56.5,54.5,29.79,West,270,0.0,-999.0,93,-99.99,,,0.00,Acu-Link.com,2013-04-30 01:51:00,
2013-04-29 22:06:00,56.5,54.8,29.79,West,270,0.0,-999.0,94,-99.99,,,0.00,Acu-Link.com,2013-04-30 02:06:00,
2013-04-29 22:22:00,56.5,54.8,29.79,West,270,0.0,-999.0,94,-99.99,,,0.00,Acu-Link.com,2013-04-30 02:22:00,
2013-04-29 22:37:00,55.9,54.2,29.80,West,270,0.0,-999.0,94,-99.99,,,0.00,Acu-Link.com,2013-04-30 02:37:00,
2013-04-29 22:52:00,55.4,53.7,29.81,WNW,292,0.0,-999.0,94,-99.99,,,0.00,Acu-Link.com,2013-04-30 02:52:00,
2013-04-29 23:07:00,54.9,53.2,29.81,West,270,0.0,-999.0,94,-99.99,,,0.00,Acu-Link.com,2013-04-30 03:07:00,
2013-04-29 23:22:00,54.3,52.9,29.80,WNW,292,1.7,-999.0,95,-99.99,,,0.00,Acu-Link.com,2013-04-30 03:22:00,
2013-04-29 23:37:00,53.8,52.4,29.80,WNW,292,0.0,-999.0,95,-99.99,,,0.00,Acu-Link.com,2013-04-30 03:37:00,
2013-04-29 23:52:00,53.2,51.8,29.80,West,270,0.0,-999.0,95,-99.99,,,0.00,Acu-Link.com,2013-04-30 03:52:00,